#timestamp,LO_Frequency,Hit,StdDev 
1594461615.8,286046995.0,N
1594461635.7,286046998.0,N
1594461655.5,286046988.6,N
1594461675.4,286046986.7,N
1594461695.2,286046986.7,N
1594461715.0,286046983.4,N
1594461715.9,286046983.4,N
1594461735.8,286046988.4,N
1594461755.6,286046985.5,N
1594461775.4,286046986.8,N
1594461795.3,286046987.7,N
1594461815.6,286046989.5,N
1594461835.4,286046992.0,N
1594461855.3,286046997.2,N
1594461875.1,286046998.6,N
1594461876.0,286046998.6,N
1594461895.8,286047001.5,N
1594461915.7,286047005.3,N
1594461935.5,286047005.8,N
1594461955.3,286047006.2,N
1594461975.2,286047007.9,N
1594461995.0,286047008.8,N
1594461995.9,286047008.8,N
1594462015.8,286047008.6,N
1594462035.6,286047006.8,N
1594462055.4,286047007.3,N
1594462075.3,286047005.8,N
1594462095.1,286047006.8,N
1594462115.9,286047003.5,N
1594462135.7,286047004.4,N
1594462155.5,286046999.0,N
1594462175.4,286047001.1,N
1594462195.2,286047003.7,N
1594462215.1,286047004.2,N
1594462216.0,286047004.2,N
1594462235.8,286047001.9,N
1594462255.6,286047002.8,N
1594462275.5,286047002.1,N
1594462295.3,286047000.3,N
1594462315.1,286046999.4,N
1594462335.9,286047001.2,N
1594462355.7,286046998.6,N
1594462375.6,286046997.8,N
1594462395.4,286046995.6,N
1594462415.2,286046994.3,N
1594462435.1,286046991.5,N
1594462436.0,286046991.5,N
1594462455.8,286046989.0,N
1594462475.6,286046988.7,N
1594462495.5,286046982.1,Y
1594462515.3,286046980.9,P
1594462535.2,286046975.1,N
1594462555.0,286046976.6,N
1594462555.9,286046976.6,N
1594462575.7,286046976.5,N
1594462595.6,286046975.2,N
1594462615.4,286046969.3,Y
1594462635.3,286046988.5,P
1594462655.1,286046985.6,P
1594462656.0,286046985.6,P
1594462675.8,286046989.9,Y
1594462695.7,286047007.0,P
1594462715.5,286047008.9,N
1594462735.4,286047006.5,N
1594462755.2,286047007.8,N
1594462775.0,286047008.7,N
1594462775.9,286047008.7,N
1594462795.8,286047010.8,N
1594462815.6,286047008.3,N
1594462835.4,286047005.6,N
1594462855.3,286046999.0,N
1594462875.1,286046996.3,N
1594462895.8,286046997.7,N
1594462915.7,286046995.2,N
1594462935.5,286046995.6,N
1594462955.4,286046995.1,N
1594462975.2,286046993.3,N
1594462995.0,286046991.3,N
1594462995.9,286046991.3,N
1594463015.8,286046988.2,N
1594463035.6,286046987.3,N
1594463055.4,286046986.3,N
1594463075.3,286046988.1,N
1594463095.1,286046983.0,N
1594463115.9,286046986.1,N
1594463135.7,286046990.6,N
1594463155.5,286046985.8,N
1594463175.4,286046993.2,N
1594463195.2,286046992.9,N
1594463215.0,286046987.7,N
1594463216.0,286046987.7,N
1594463235.8,286046984.9,N
1594463255.6,286046988.0,N
1594463275.5,286046987.9,N
1594463295.3,286046985.2,N
1594463315.1,286046986.4,N
1594463335.9,286046979.1,N
1594463355.7,286046980.5,N
1594463375.5,286046984.0,N
1594463395.4,286046986.5,N
1594463415.2,286046987.0,N
1594463435.1,286046991.6,N
1594463436.0,286046991.6,N
1594463455.8,286046991.7,N
1594463475.6,286046997.6,N
1594463495.5,286047001.1,N
1594463515.3,286047001.0,N
1594463535.1,286046998.9,N
1594463555.9,286046999.9,N
1594463575.7,286047004.0,N
1594463595.6,286047002.1,N
1594463615.4,286046995.4,N
1594463635.2,286046993.6,N
1594463655.1,286046993.8,N
1594463656.0,286046993.8,N
1594463675.8,286046993.9,N
1594463695.6,286046994.9,N
1594463715.5,286046993.4,N
1594463735.3,286046988.1,N
1594463755.2,286046986.9,N
1594463775.0,286046988.6,N
1594463775.9,286046988.6,N
1594463795.8,286046990.2,N
1594463815.6,286046993.5,N
1594463835.5,286046996.8,N
1594463855.3,286046988.5,N
1594463875.1,286046987.9,N
1594463895.9,286046984.7,N
1594463915.7,286046980.2,Y
1594463935.5,286046981.9,P
1594463955.4,286046977.2,P
1594463975.2,286046971.2,P
1594463995.1,286046977.0,N
1594463996.0,286046977.0,Y
1594464015.8,286046995.9,P
1594464035.6,286046997.3,N
1594464055.5,286046998.9,N
1594464075.3,286047000.7,N
1594464095.2,286047002.7,N
1594464115.9,286047005.9,N
1594464135.7,286047004.8,N
1594464155.6,286047008.8,N
1594464175.4,286047008.2,N
1594464195.2,286047015.1,N
1594464215.1,286047014.1,N
1594464216.0,286047014.1,N
1594464235.8,286047018.9,N
1594464255.7,286047026.2,N
1594464275.5,286047026.0,N
1594464295.4,286047027.5,N
1594464315.2,286047031.1,N
1594464335.0,286047028.5,N
1594464335.9,286047028.5,N
1594464355.8,286047031.8,N
1594464375.6,286047032.9,N
1594464395.5,286047032.8,N
1594464415.3,286047032.2,N
1594464435.1,286047034.2,N
1594464455.9,286047031.1,N
1594464475.7,286047027.7,N
1594464495.5,286047020.8,N
1594464515.4,286047023.2,N
1594464535.2,286047020.9,N
1594464555.1,286047024.4,N
1594464556.0,286047024.4,N
1594464575.8,286047028.2,N
1594464595.6,286047028.5,N
1594464615.5,286047025.5,N
1594464635.3,286047014.5,N
1594464655.2,286047004.4,N
1594464675.9,286046995.7,N
1594464695.7,286046989.9,N
1594464715.6,286046987.9,N
1594464735.4,286046992.6,N
1594464755.2,286046994.5,N
1594464775.1,286046989.1,N
1594464776.0,286046989.1,N
1594464795.8,286046987.4,N
1594464815.7,286046987.6,N
1594464835.5,286046985.4,N
1594464855.3,286046978.8,N
1594464875.2,286046980.2,N
1594464895.0,286046981.0,N
1594464895.9,286046981.0,N
1594464915.8,286046985.2,N
1594464935.6,286046987.5,N
1594464955.4,286046992.4,N
1594464975.3,286046990.5,N
1594464995.1,286046985.8,N
1594465015.8,286046988.2,N
1594465035.7,286046989.8,N
1594465055.5,286046991.5,N
1594465075.4,286046984.1,N
1594465095.2,286046979.7,N
1594465115.0,286046973.9,N
1594465115.9,286046973.9,N
1594465135.8,286046975.8,N
1594465155.6,286046980.4,N
1594465175.5,286046983.6,N
1594465195.3,286046985.0,N
